1509073200.25,38552,12.44,73404.8,-3.45,-8.89,-6.89,0,*55
1509073201.49,38553,12.44,73406.8,-3.43,-8.85,-6.81,0,*56
1509073202.71,38554,12.5,73402.0,-3.43,-8.55,-6.51,0,*51
1509073203.94,38555,12.44,73398.8,-3.43,-8.41,-6.51,0,*55
1509073205.13,38556,12.44,73398.8,-3.45,-8.25,-6.51,0,*52
1509073206.35,38557,12.44,73392.3,-3.43,-8.25,-6.51,0,*55
1509073207.6,38558,12.44,73392.5,-3.43,-8.25,-6.63,0,*5B
1509073208.82,38559,12.44,73400.5,-3.43,-8.37,-6.85,0,*51
1509073210.07,38560,12.44,73404.0,-3.43,-8.37,-6.93,0,*5C
1509073211.31,38561,12.44,73408.3,-3.43,-8.29,-6.97,0,*56
1509073212.56,38562,12.44,73406.0,-3.43,-8.29,-6.97,0,*55
1509073213.8,38563,12.44,73398.3,-3.43,-8.37,-6.97,0,*5B
1509073215.04,38564,12.44,73394.0,-3.43,-8.29,-6.97,0,*53
1509073216.29,38565,12.44,73400.0,-3.43,-8.29,-6.97,0,*52
1509073217.5,38566,12.44,73402.0,-3.43,-8.29,-6.85,0,*52
1509073218.72,38567,12.44,73400.0,-3.43,-8.29,-6.85,0,*53
1509073219.95,38568,12.44,73392.3,-3.43,-8.25,-6.81,0,*54
1509073221.16,38569,12.44,73396.3,-3.43,-8.25,-6.69,0,*53
1509073222.39,38570,12.44,73396.8,-3.43,-8.25,-6.55,0,*54
1509073223.58,38571,12.44,73398.0,-3.45,-8.21,-6.59,0,*5B
1509073224.78,38572,12.44,73398.5,-3.45,-8.21,-6.59,0,*58
1509073225.97,38573,12.44,73398.5,-3.45,-8.21,-6.59,0,*59
1509073227.21,38574,12.44,73396.3,-3.43,-8.03,-6.51,0,*50
1509073228.46,38575,12.44,73398.3,-3.43,-7.99,-6.43,0,*5E
1509073229.7,38576,12.44,73398.0,-3.43,-7.91,-6.39,0,*58
1509073230.94,38577,12.44,73400.5,-3.43,-7.91,-6.43,0,*54
1509073232.19,38578,12.44,73402.8,-3.43,-7.77,-6.51,0,*50
1509073233.41,38579,12.44,73404.3,-3.43,-7.87,-6.43,0,*5D
1509073234.63,38580,12.44,73404.0,-3.45,-7.69,-6.47,0,*59
1509073235.88,38581,12.44,73398.3,-3.43,-7.73,-6.51,0,*52
1509073237.15,38582,12.44,73402.8,-3.43,-7.65,-6.63,0,*57
1509073238.37,38583,12.44,73400.0,-3.45,-7.69,-6.73,0,*5D
1509073239.64,38584,12.44,73392.5,-3.43,-7.73,-6.93,0,*59
1509073240.92,38585,12.44,73394.0,-3.43,-7.73,-6.93,0,*58
1509073242.19,38586,12.44,73394.3,-3.43,-7.73,-6.97,0,*5F
1509073243.46,38587,12.44,73396.0,-3.43,-7.73,-7.05,0,*54
1509073244.71,38588,12.44,73396.3,-3.43,-7.65,-7.11,0,*59
1509073245.96,38589,12.44,73396.3,-3.43,-7.73,-7.19,0,*57
1509073247.18,38590,12.44,73398.3,-3.45,-7.83,-7.27,0,*5B
1509073248.43,38591,12.44,73402.5,-3.39,-7.69,-7.27,0,*55
1509073249.68,38592,12.44,73404.8,-3.39,-7.73,-7.27,0,*5D
1509073250.95,38593,12.44,73404.8,-3.43,-7.91,-7.35,0,*5E
1509073252.16,38594,12.44,73402.5,-3.45,-8.03,-7.53,0,*5B
1509073253.4,38595,12.44,73406.0,-3.45,-8.03,-7.65,0,*5F
1509073254.65,38596,12.44,73406.8,-3.43,-8.11,-7.83,0,*51
1509073255.9,38597,12.44,73412.8,-3.43,-8.11,-7.87,0,*54
1509073257.17,38598,12.44,73408.5,-3.43,-8.11,-7.61,0,*53
1509073258.4,38599,12.44,73410.8,-3.43,-8.17,-7.87,0,*5C
1509073259.65,38600,12.44,73408.8,-3.43,-8.25,-7.77,0,*51
1509073260.89,38601,12.44,73398.5,-3.43,-8.25,-7.77,0,*50
1509073262.14,38602,12.44,73398.0,-3.43,-8.41,-7.99,0,*51
1509073263.36,38603,12.44,73398.8,-3.45,-8.45,-8.03,0,*5E
1509073264.55,38604,12.44,73400.0,-3.45,-8.63,-8.17,0,*58
1509073265.8,38605,12.44,73396.3,-3.43,-8.55,-8.11,0,*5C
1509073267.01,38606,12.44,73398.8,-3.43,-8.67,-8.17,0,*58
1509073268.21,38607,12.44,73402.0,-3.45,-8.75,-8.21,0,*59
1509073269.43,38608,12.44,73396.3,-3.43,-8.85,-8.17,0,*5A
1509073270.66,38609,12.44,73394.3,-3.43,-8.93,-8.37,0,*5E
1509073271.89,38610,12.44,73384.0,-3.43,-9.05,-8.37,0,*58
1509073273.11,38611,12.44,73378.3,-3.43,-9.19,-8.29,0,*5B
1509073274.3,38612,12.44,73372.0,-3.45,-9.27,-8.29,0,*53
1509073275.55,38613,12.44,73374.3,-3.43,-9.53,-8.37,0,*58
1509073276.74,38614,12.44,73374.3,-3.45,-9.67,-8.45,0,*5B
1509073277.96,38615,12.44,73380.5,-3.43,-9.75,-8.41,0,*5B
1509073279.17,38616,12.44,73386.3,-3.43,-9.89,-8.41,0,*5B
1509073280.38,38617,12.44,73394.5,-3.43,-9.79,-8.29,0,*5B
1509073281.57,38618,12.44,73396.0,-3.45,-9.93,-8.33,0,*5D
1509073282.78,38619,12.44,73402.5,-3.43,-9.79,-8.25,0,*59
1509073283.99,38620,12.44,73400.0,-3.43,-9.89,-8.25,0,*5C
1509073285.21,38621,12.44,73396.5,-3.43,-9.79,-8.17,0,*53
1509073286.46,38622,12.44,73388.5,-3.43,-9.79,-8.11,0,*56
1509073287.7,38623,12.44,73388.3,-3.43,-9.75,-7.99,0,*54
1509073288.94,38624,12.44,73390.8,-3.43,-9.67,-7.99,0,*50
1509073290.19,38625,12.44,73398.0,-3.43,-9.67,-7.91,0,*59
1509073291.43,38626,12.44,73392.8,-3.43,-9.67,-7.91,0,*5A
1509073292.65,38627,12.44,73394.8,-3.45,-9.71,-8.03,0,*5E
1509073293.91,38628,12.44,73382.5,-3.43,-9.53,-8.03,0,*57
1509073295.13,38629,12.44,73384.3,-3.45,-9.67,-8.07,0,*53
1509073296.32,38630,12.44,73386.5,-3.45,-9.79,-8.21,0,*50
1509073297.54,38631,12.44,73394.0,-3.45,-9.67,-8.11,0,*5D
1509073298.73,38632,12.44,73394.3,-3.45,-9.79,-8.17,0,*57
1509073300.0,38633,12.44,73392.8,-3.43,-9.49,-8.03,0,*56
1509073301.24,38634,12.44,73388.3,-3.45,-9.53,-8.07,0,*58
1509073302.52,38635,12.44,73390.5,-3.43,-9.41,-7.99,0,*54
1509073303.7,38636,12.44,73390.5,-3.45,-9.67,-8.17,0,*5C
1509073304.91,38637,12.44,73390.3,-3.45,-9.57,-8.17,0,*5E
1509073306.15,38638,12.44,73394.8,-3.45,-9.53,-8.03,0,*50
1509073307.38,38639,12.44,73402.0,-3.45,-9.57,-8.03,0,*55
1509073308.57,38640,12.44,73400.8,-3.45,-9.79,-8.21,0,*57
1509073309.8,38641,12.44,73400.8,-3.45,-9.57,-8.03,0,*5A
1509073311.04,38642,12.44,73400.0,-3.45,-9.53,-8.03,0,*5D
1509073312.28,38643,12.44,73404.3,-3.45,-9.45,-7.95,0,*5B
1509073313.54,38644,12.44,73408.8,-3.47,-9.53,-7.95,0,*59
1509073314.78,38645,12.44,73410.0,-3.47,-9.67,-8.07,0,*5B
1509073316.0,38646,12.44,73408.5,-3.47,-9.67,-8.21,0,*5C
1509073317.24,38647,12.44,73410.3,-3.47,-9.53,-8.17,0,*5F
1509073318.5,38648,12.44,73400.0,-3.47,-9.41,-8.03,0,*56
1509073319.76,38649,12.44,73398.8,-3.47,-9.45,-8.03,0,*53
1509073321.03,38650,12.44,73394.8,-3.47,-9.45,-8.03,0,*5B
1509073322.3,38651,12.44,73390.3,-3.47,-9.45,-8.07,0,*5E
1509073323.57,38652,12.44,73396.8,-3.47,-9.53,-8.07,0,*5A
1509073324.84,38653,12.44,73400.0,-3.47,-9.53,-8.07,0,*5B
1509073326.09,38654,12.44,73410.8,-3.47,-9.57,-8.03,0,*5C
1509073327.35,38655,12.44,73406.5,-3.47,-9.53,-8.03,0,*59
1509073328.61,38656,12.44,73406.3,-3.47,-9.53,-8.03,0,*5A
1509073329.88,38657,12.44,73400.5,-3.47,-9.45,-7.77,0,*50
1509073331.1,38658,12.44,73406.8,-3.49,-9.45,-7.83,0,*5A
1509073332.35,38659,12.44,73402.3,-3.47,-9.41,-7.83,0,*51
1509073333.63,38660,12.44,73402.3,-3.47,-9.41,-7.77,0,*50
1509073334.85,38661,12.44,73404.8,-3.49,-9.27,-7.69,0,*50
1509073336.07,38662,12.44,73404.8,-3.49,-9.31,-7.69,0,*54
1509073337.34,38663,12.44,73402.8,-3.47,-9.15,-7.65,0,*51
1509073338.6,38664,12.44,73396.0,-3.49,-9.15,-7.57,0,*59
1509073339.8,38665,12.44,73400.0,-3.49,-9.01,-7.53,0,*59
1509073341.04,38666,12.44,73402.0,-3.49,-9.01,-7.57,0,*5E
1509073342.27,38667,12.44,73398.5,-3.49,-9.01,-7.65,0,*5E
1509073343.49,38668,12.44,73396.8,-3.49,-9.01,-7.69,0,*5D
1509073344.75,38669,12.44,73396.3,-3.51,-9.01,-7.69,0,*55
1509073345.98,38670,12.44,73392.8,-3.49,-9.05,-7.73,0,*5B
1509073347.21,38671,12.44,73400.5,-3.49,-9.05,-7.73,0,*5A
1509073348.43,38672,12.44,73402.0,-3.49,-9.05,-7.69,0,*52
1509073349.67,38673,12.44,73398.3,-3.47,-8.97,-7.65,0,*5B
1509073350.93,38674,12.44,73400.0,-3.49,-9.15,-7.69,0,*55
1509073352.16,38675,12.44,73396.5,-3.49,-8.93,-7.43,0,*53
1509073353.38,38676,12.44,73398.0,-3.49,-8.75,-7.39,0,*55
1509073354.63,38677,12.44,73388.0,-3.51,-8.67,-7.31,0,*56
1509073355.88,38678,12.44,73392.0,-3.51,-8.55,-7.27,0,*5F
1509073357.1,38679,12.44,73396.3,-3.47,-8.45,-7.15,0,*59
1509073358.33,38680,12.44,73400.0,-3.49,-8.51,-7.19,0,*58
1509073359.56,38681,12.44,73396.8,-3.49,-8.51,-7.15,0,*55
1509073360.76,38682,12.44,73400.0,-3.49,-8.45,-7.15,0,*53
1509073361.96,38683,12.44,73400.3,-3.49,-8.45,-7.19,0,*5E
1509073363.19,38684,12.44,73402.5,-3.51,-8.37,-7.19,0,*55
1509073364.4,38685,12.44,73406.5,-3.47,-8.33,-7.15,0,*5B
1509073365.62,38686,12.44,73406.3,-3.47,-8.41,-7.23,0,*58
1509073366.85,38687,12.44,73410.8,-3.49,-8.45,-7.27,0,*57
1509073368.07,38688,12.44,73408.5,-3.49,-8.45,-7.27,0,*58
1509073369.32,38689,12.44,73410.0,-3.49,-8.51,-7.27,0,*5C
1509073370.54,38690,12.44,73406.3,-3.47,-8.33,-7.15,0,*5F
1509073371.74,38691,12.44,73408.0,-3.49,-8.37,-7.19,0,*58
1509073372.96,38692,12.44,73404.8,-3.49,-8.25,-7.05,0,*55
1509073374.17,38693,12.44,73406.5,-3.47,-8.21,-6.89,0,*5B
1509073375.4,38694,12.44,73406.0,-3.49,-8.11,-6.89,0,*51
1509073376.65,38695,12.44,73404.5,-3.49,-8.11,-7.01,0,*51
1509073377.89,38696,12.44,73404.8,-3.51,-7.95,-6.89,0,*59
1509073379.09,38697,12.44,73400.8,-3.49,-7.83,-6.73,0,*53
1509073380.34,38698,12.44,73400.0,-3.49,-7.73,-6.63,0,*52
1509073381.6,38699,12.44,73406.0,-3.49,-7.57,-6.63,0,*55
1509073382.82,38700,12.44,73406.3,-3.49,-7.57,-6.77,0,*51
1509073384.07,38701,12.44,73406.3,-3.47,-7.61,-6.89,0,*5A
1509073385.34,38702,12.44,73408.8,-3.51,-7.57,-7.01,0,*5A
1509073386.61,38703,12.44,73410.0,-3.51,-7.57,-7.05,0,*5F
1509073387.84,38704,12.44,73404.3,-3.49,-7.69,-7.19,0,*51
1509073389.09,38705,12.44,73406.0,-3.53,-7.73,-7.31,0,*5A
1509073390.35,38706,12.44,73404.0,-3.51,-7.73,-7.19,0,*51
1509073391.6,38707,12.44,73396.5,-3.51,-7.65,-7.19,0,*57
1509073392.87,38708,12.44,73400.3,-3.51,-7.69,-7.27,0,*59
1509073394.14,38709,12.44,73400.3,-3.51,-7.69,-7.31,0,*5F
1509073395.39,38710,12.44,73402.5,-3.53,-7.77,-7.35,0,*5E
1509073396.65,38711,12.44,73404.3,-3.51,-7.73,-7.19,0,*57
1509073397.9,38712,12.44,73402.3,-3.51,-7.83,-7.27,0,*56
1509073399.15,38713,12.44,73400.8,-3.53,-7.99,-7.31,0,*59
1509073400.37,38714,12.44,73402.5,-3.51,-7.83,-7.15,0,*51
1509073401.57,38715,12.44,73404.3,-3.53,-7.87,-7.11,0,*52
1509073402.78,38716,12.44,73406.5,-3.53,-7.87,-7.19,0,*59
1509073404.0,38717,12.44,73406.8,-3.51,-7.87,-7.15,0,*56
1509073405.25,38718,12.44,73410.5,-3.53,-7.91,-6.93,0,*53
1509073406.48,38719,12.44,73406.8,-3.53,-7.69,-6.81,0,*56
1509073407.7,38720,12.44,73400.5,-3.53,-7.73,-6.77,0,*5E
1509073408.96,38721,12.44,73406.8,-3.51,-7.73,-6.77,0,*5D
1509073410.24,38722,12.44,73400.0,-3.51,-7.73,-6.63,0,*5B
1509073411.46,38723,12.44,73398.5,-3.53,-7.77,-6.69,0,*56
1509073412.68,38724,12.44,73394.8,-3.51,-7.83,-6.73,0,*53
1509073413.96,38725,12.44,73402.0,-3.51,-7.73,-6.63,0,*5C
1509073415.21,38726,12.44,73402.5,-3.51,-7.73,-6.69,0,*55
1509073416.46,38727,12.44,73402.8,-3.51,-7.69,-6.59,0,*5C
1509073417.7,38728,12.44,73400.3,-3.51,-7.69,-6.59,0,*53
1509073418.96,38729,12.44,73402.3,-3.51,-7.73,-6.51,0,*51
1509073420.19,38730,12.44,73404.0,-3.49,-7.73,-6.51,0,*50
1509073421.42,38731,12.44,73402.5,-3.53,-7.73,-6.51,0,*5A
1509073422.65,38732,12.44,73406.0,-3.53,-7.69,-6.43,0,*51
1509073423.89,38733,12.44,73410.0,-3.51,-7.65,-6.39,0,*53
1509073425.12,38734,12.44,73412.8,-3.53,-7.69,-6.43,0,*57
1509073426.37,38735,12.44,73408.0,-3.51,-7.57,-6.47,0,*5D
1509073427.6,38736,12.44,73408.8,-3.53,-7.57,-6.39,0,*55
1509073428.83,38737,12.44,73408.8,-3.53,-7.61,-6.39,0,*51
1509073430.06,38738,12.44,73412.0,-3.53,-7.61,-6.31,0,*56
1509073431.3,38739,12.44,73414.5,-3.51,-7.43,-6.13,0,*55
1509073432.55,38740,12.44,73412.0,-3.51,-7.53,-6.27,0,*5D
1509073433.8,38741,12.44,73412.0,-3.53,-7.57,-6.27,0,*5A
1509073435.03,38742,12.44,73414.3,-3.53,-7.49,-6.19,0,*5B
1509073436.27,38743,12.44,73410.5,-3.51,-7.31,-6.09,0,*56
1509073437.51,38744,12.44,73410.5,-3.51,-7.31,-6.09,0,*51
1509073438.74,38745,12.44,73406.8,-3.53,-7.35,-6.13,0,*5D
1509073439.98,38746,12.44,73400.5,-3.51,-7.31,-6.13,0,*58
1509073441.2,38747,12.44,73404.5,-3.51,-7.19,-6.09,0,*58
1509073442.41,38748,12.44,73402.5,-3.53,-7.19,-6.13,0,*5E
1509073443.63,38749,12.44,73398.5,-3.53,-7.05,-6.05,0,*55
1509073444.83,38750,12.44,73402.5,-3.53,-7.11,-6.05,0,*58
1509073446.05,38751,12.44,73398.5,-3.53,-6.97,-5.97,0,*5E
1509073447.28,38752,12.44,73394.8,-3.53,-6.97,-5.97,0,*5D
1509073448.53,38753,12.44,73400.0,-3.51,-6.77,-5.81,0,*57
1509073449.78,38754,12.44,73398.5,-3.51,-6.77,-5.85,0,*54
1509073451.04,38755,12.44,73400.3,-3.51,-6.73,-5.85,0,*51
1509073452.31,38756,12.44,73400.3,-3.51,-6.63,-5.81,0,*57
1509073453.56,38757,12.44,73400.3,-3.51,-6.51,-5.81,0,*57
1509073454.81,38758,12.44,73408.3,-3.51,-6.59,-5.73,0,*5D
1509073456.05,38759,12.44,73410.8,-3.53,-6.63,-5.77,0,*53
1509073457.31,38760,12.44,73414.3,-3.51,-6.51,-5.85,0,*57
1509073458.56,38761,12.44,73414.0,-3.53,-6.63,-5.89,0,*59
1509073459.79,38762,12.44,73414.5,-3.53,-6.59,-5.85,0,*5F
1509073461.02,38763,12.44,73416.5,-3.53,-6.55,-5.89,0,*5E
1509073462.28,38764,12.44,73412.3,-3.51,-6.51,-5.85,0,*53
1509073463.51,38765,12.44,73418.8,-3.53,-6.43,-5.85,0,*53
1509073464.75,38766,12.44,73414.3,-3.53,-6.63,-5.89,0,*5E
1509073465.95,38767,12.44,73410.0,-3.53,-6.55,-5.97,0,*55
1509073467.15,38768,12.44,73406.8,-3.53,-6.55,-6.01,0,*56
1509073468.35,38769,12.44,73404.3,-3.53,-6.55,-5.97,0,*5B
1509073469.55,38770,12.44,73406.3,-3.53,-6.51,-5.97,0,*57
1509073470.8,38771,12.44,73408.3,-3.55,-6.31,-5.85,0,*55
1509073472.07,38772,12.44,73402.5,-3.55,-6.27,-5.89,0,*5D
1509073473.34,38773,12.44,73400.0,-3.55,-6.27,-5.85,0,*50
1509073474.62,38774,12.44,73396.0,-3.55,-6.19,-5.85,0,*5A
1509073475.85,38775,12.44,73402.8,-3.57,-6.31,-5.93,0,*54
1509073477.08,38776,12.44,73398.8,-3.57,-6.31,-5.89,0,*5C
1509073478.33,38777,12.44,73400.8,-3.55,-6.13,-5.89,0,*5F
1509073479.58,38778,12.44,73400.5,-3.55,-6.13,-5.85,0,*5C
1509073480.83,38779,12.44,73396.3,-3.55,-6.05,-5.89,0,*56
1509073482.08,38780,12.44,73400.0,-3.55,-6.13,-5.89,0,*57
1509073483.33,38781,12.44,73400.8,-3.55,-6.01,-5.85,0,*59
1509073484.57,38782,12.44,73404.8,-3.55,-6.01,-5.77,0,*57
1509073485.79,38783,12.44,73404.3,-3.57,-6.23,-6.01,0,*56
1509073487.05,38784,12.44,73402.0,-3.57,-6.19,-5.93,0,*50
1509073488.3,38785,12.44,73398.3,-3.55,-6.01,-5.85,0,*5D
1509073489.55,38786,12.44,73400.0,-3.55,-6.05,-5.85,0,*5A
1509073490.77,38787,12.44,73404.5,-3.57,-6.05,-5.89,0,*55
1509073492.02,38788,12.44,73408.3,-3.55,-6.01,-5.85,0,*50
1509073493.28,38789,12.44,73410.8,-3.55,-6.01,-5.85,0,*51
1509073494.52,38790,12.44,73406.0,-3.55,-6.05,-5.85,0,*5D
1509073495.77,38791,12.44,73406.0,-3.55,-5.97,-5.77,0,*59
1509073497.01,38792,12.44,73406.5,-3.55,-5.97,-5.77,0,*5A
1509073498.24,38793,12.44,73404.8,-3.57,-6.01,-5.85,0,*58
1509073499.47,38794,12.44,73410.3,-3.57,-6.05,-5.89,0,*57
1509073500.72,38795,12.44,73408.5,-3.55,-5.97,-5.89,0,*5C
1509073501.97,38796,12.44,73412.0,-3.55,-5.97,-5.89,0,*5F
1509073503.22,38797,12.44,73414.3,-3.55,-5.97,-5.89,0,*5E
1509073504.47,38798,12.44,73414.0,-3.55,-5.97,-5.89,0,*51
1509073505.66,38799,12.44,73408.3,-3.57,-6.05,-6.01,0,*59
1509073506.88,38800,12.44,73408.3,-3.55,-6.01,-5.97,0,*5C
1509073508.08,38801,12.44,73402.8,-3.57,-6.05,-6.05,0,*53
1509073509.29,38802,12.44,73400.8,-3.55,-6.01,-5.97,0,*5E
1509073510.49,38803,12.44,73400.8,-3.57,-6.05,-6.01,0,*55
1509073511.71,38804,12.44,73402.0,-3.55,-6.01,-6.05,0,*50
1509073512.91,38805,12.44,73400.0,-3.57,-6.09,-6.09,0,*57
1509073514.11,38806,12.44,73402.8,-3.53,-6.13,-6.01,0,*53
1509073515.33,38807,12.44,73396.8,-3.55,-6.13,-6.01,0,*54
1509073516.55,38808,12.44,73398.3,-3.55,-6.13,-6.01,0,*5B
1509073517.78,38809,12.44,73398.8,-3.55,-6.27,-6.13,0,*5E
1509073518.99,38810,12.44,73394.8,-3.57,-6.43,-6.35,0,*52
1509073520.21,38811,12.44,73392.5,-3.55,-6.39,-6.31,0,*58
1509073521.42,38812,12.44,73390.3,-3.57,-6.35,-6.31,0,*55
1509073522.65,38813,12.44,73390.5,-3.55,-6.43,-6.31,0,*57
1509073523.85,38814,12.44,73392.5,-3.57,-6.47,-6.35,0,*52
1509073525.05,38815,12.44,73394.8,-3.57,-6.55,-6.35,0,*50
1509073526.27,38816,12.44,73394.0,-3.55,-6.55,-6.39,0,*5D
1509073527.51,38817,12.44,73394.3,-3.55,-6.63,-6.39,0,*59
1509073528.75,38818,12.44,73396.8,-3.55,-6.63,-6.51,0,*58
1509073529.99,38819,12.44,73394.3,-3.55,-6.63,-6.51,0,*59
1509073531.19,38820,12.44,73394.5,-3.57,-6.81,-6.69,0,*56
1509073532.44,38821,12.44,73400.5,-3.55,-6.81,-6.63,0,*5F
1509073533.67,38822,12.44,73396.3,-3.57,-6.93,-6.73,0,*5C
1509073534.89,38823,12.44,73396.8,-3.57,-6.97,-6.69,0,*52
1509073536.1,38824,12.44,73396.5,-3.57,-6.81,-6.47,0,*5E
1509073537.35,38825,12.44,73400.5,-3.59,-6.93,-6.59,0,*5D
1509073538.58,38826,12.44,73400.3,-3.59,-7.15,-6.69,0,*52
1509073539.81,38827,12.44,73406.0,-3.59,-7.23,-6.81,0,*50
1509073541.06,38828,12.44,73406.0,-3.61,-6.97,-6.63,0,*56
1509073542.31,38829,12.44,73408.0,-3.59,-6.97,-6.59,0,*55
1509073543.56,38830,12.44,73408.0,-3.59,-7.01,-6.73,0,*5B
1509073544.81,38831,12.44,73404.3,-3.59,-6.93,-6.55,0,*54
1509073546.04,38832,12.44,73408.8,-3.61,-6.97,-6.59,0,*54
1509073547.32,38833,12.44,73410.5,-3.59,-7.01,-6.63,0,*59
1509073548.52,38834,12.44,73412.3,-3.61,-6.89,-6.51,0,*55
1509073549.75,38835,12.44,73408.0,-3.61,-6.97,-6.51,0,*5B
1509073550.95,38836,12.44,73404.8,-3.61,-6.77,-6.47,0,*51
1509073552.15,38837,12.44,73408.5,-3.61,-6.89,-6.39,0,*58
1509073553.35,38838,12.44,73406.3,-3.61,-6.73,-6.47,0,*5B
1509073554.55,38839,12.44,73406.8,-3.61,-6.85,-6.47,0,*53
1509073555.76,38840,12.44,73410.3,-3.61,-6.89,-6.51,0,*56
1509073556.96,38841,12.44,73408.8,-3.61,-6.85,-6.51,0,*5B
1509073558.16,38842,12.44,73402.5,-3.61,-6.85,-6.51,0,*58
1509073559.36,38843,12.44,73398.0,-3.61,-6.77,-6.51,0,*54
1509073560.57,38844,12.44,73400.0,-3.61,-6.89,-6.59,0,*5A
1509073561.79,38845,12.44,73396.5,-3.61,-6.89,-6.63,0,*52
1509073562.99,38846,12.44,73400.8,-3.61,-6.85,-6.59,0,*54
1509073564.19,38847,12.44,73402.8,-3.61,-6.85,-6.69,0,*56
1509073565.44,38848,12.44,73396.3,-3.59,-6.97,-6.69,0,*51
1509073566.65,38849,12.44,73402.0,-3.59,-6.85,-6.69,0,*53
1509073567.88,38850,12.44,73388.0,-3.61,-6.97,-6.77,0,*5C
1509073569.08,38851,12.44,73392.0,-3.61,-6.89,-6.77,0,*52
1509073570.31,38852,12.44,73388.3,-3.61,-7.01,-6.85,0,*5D
1509073571.53,38853,12.44,73390.3,-3.61,-7.05,-6.85,0,*58
1509073572.75,38854,12.44,73388.8,-3.61,-7.05,-6.77,0,*52
1509073573.99,38855,12.44,73386.5,-3.65,-7.05,-6.81,0,*5E
1509073575.2,38856,12.44,73380.5,-3.65,-7.11,-6.81,0,*58
1509073576.43,38857,12.44,73386.0,-3.67,-7.11,-6.89,0,*53
1509073577.66,38858,12.44,73378.5,-3.65,-7.35,-7.11,0,*58
1509073578.89,38859,12.44,73374.3,-3.65,-7.31,-7.11,0,*5D
1509073580.11,38860,12.44,73378.5,-3.65,-7.31,-7.19,0,*5F
1509073581.36,38861,12.44,73384.3,-3.61,-7.43,-7.27,0,*52
1509073582.62,38862,12.44,73382.8,-3.65,-7.43,-7.35,0,*56
1509073583.89,38863,12.44,73384.5,-3.67,-7.43,-7.31,0,*51
1509073585.15,38864,12.44,73388.0,-3.67,-7.31,-7.23,0,*50
1509073586.43,38865,12.44,73384.8,-3.67,-7.43,-7.43,0,*52
1509073587.7,38866,12.44,73388.5,-3.67,-7.31,-7.35,0,*55
1509073588.93,38867,12.44,73390.3,-3.65,-7.49,-7.61,0,*58
1509073590.19,38868,12.44,73388.5,-3.65,-7.61,-7.61,0,*5D
1509073591.47,38869,12.44,73388.5,-3.67,-7.57,-7.69,0,*53
1509073592.75,38870,12.44,73386.8,-3.67,-7.57,-7.69,0,*5B
1509073593.99,38871,12.44,73388.8,-3.67,-7.49,-7.69,0,*55
1509073595.24,38872,12.44,73392.8,-3.67,-7.49,-7.69,0,*56
1509073596.5,38873,12.44,73392.3,-3.67,-7.61,-7.87,0,*5D
1509073597.75,38874,12.44,73398.5,-3.65,-7.69,-7.91,0,*57
1509073599.0,38875,12.44,73396.5,-3.67,-7.69,-7.87,0,*53
1509073600.27,38876,12.44,73396.0,-3.67,-7.69,-7.91,0,*57
1509073601.55,38877,12.44,73394.0,-3.67,-7.69,-7.99,0,*5E
1509073602.82,38878,12.44,73396.0,-3.67,-7.69,-7.91,0,*59
1509073604.1,38879,12.44,73396.0,-3.67,-7.73,-8.11,0,*54
1509073605.36,38880,12.44,73396.5,-3.67,-7.73,-8.17,0,*54
1509073606.58,38881,12.44,73396.0,-3.69,-8.03,-8.41,0,*50
1509073607.77,38882,12.44,73398.3,-3.69,-8.17,-8.55,0,*53
1509073608.96,38883,12.44,73400.0,-3.69,-8.29,-8.59,0,*53
1509073610.18,38884,12.44,73402.5,-3.71,-8.41,-8.67,0,*5E
1509073611.38,38885,12.44,73402.3,-3.69,-8.55,-8.75,0,*50
1509073612.57,38886,12.44,73402.3,-3.69,-8.45,-8.75,0,*52
1509073613.78,38887,12.44,73398.3,-3.69,-8.55,-8.85,0,*5D
1509073614.98,38888,12.44,73400.8,-3.69,-8.67,-8.85,0,*53
1509073616.19,38889,12.44,73402.5,-3.69,-8.89,-8.89,0,*5E
1509073617.39,38890,12.44,73406.0,-3.69,-8.97,-8.89,0,*59
1509073618.62,38891,12.44,73400.8,-3.71,-9.01,-8.89,0,*5F
1509073619.86,38892,12.44,73398.5,-3.69,-9.11,-8.89,0,*54
1509073621.11,38893,12.44,73398.5,-3.69,-9.37,-9.15,0,*55
1509073622.35,38894,12.44,73398.0,-3.71,-9.53,-9.23,0,*5C
1509073623.57,38895,12.44,73398.0,-3.71,-9.67,-9.23,0,*5A
1509073624.81,38896,12.44,73400.3,-3.71,-9.67,-9.15,0,*5C
1509073626.05,38897,12.44,73400.0,-3.71,-9.61,-9.01,0,*5E
1509073627.32,38898,12.44,73398.5,-3.71,-9.61,-9.11,0,*50
1509073628.57,38899,12.44,73396.3,-3.73,-9.53,-9.01,0,*53
1509073629.82,38900,12.44,73396.0,-3.73,-9.53,-8.93,0,*58
1509073631.07,38901,12.44,73388.5,-3.73,-9.71,-9.15,0,*56
1509073632.27,38902,12.44,73390.5,-3.75,-9.71,-9.05,0,*52
1509073633.49,38903,12.44,73392.8,-3.73,-9.67,-8.93,0,*5C
1509073634.76,38904,12.44,73392.3,-3.73,-9.53,-8.81,0,*5F
1509073635.98,38905,12.44,73388.8,-3.73,-9.67,-8.93,0,*5A
1509073637.21,38906,12.44,73390.5,-3.73,-9.71,-8.93,0,*5E
1509073638.44,38907,12.44,73388.8,-3.73,-9.67,-8.89,0,*53
1509073639.67,38908,12.44,73390.8,-3.73,-9.67,-8.89,0,*5C
1509073640.92,38909,12.44,73390.0,-3.73,-9.71,-8.81,0,*52
1509073642.14,38910,12.44,73390.5,-3.73,-9.67,-8.89,0,*55
1509073643.36,38911,12.44,73384.5,-3.73,-9.89,-8.93,0,*5F
1509073644.59,38912,12.44,73384.3,-3.73,-10.09,-9.01,0,*66
1509073645.79,38913,12.44,73386.3,-3.75,-10.01,-9.01,0,*69
1509073647.04,38914,12.44,73384.3,-3.73,-10.01,-8.81,0,*61
1509073648.26,38915,12.44,73390.0,-3.73,-10.09,-8.75,0,*63
1509073649.45,38916,12.44,73396.8,-3.75,-10.15,-8.75,0,*6B
1509073650.65,38917,12.44,73396.3,-3.75,-10.15,-8.59,0,*64
1509073651.85,38918,12.44,73398.5,-3.75,-10.01,-8.45,0,*63
1509073653.07,38919,12.44,73400.8,-3.75,-10.09,-8.51,0,*6F
1509073654.31,38920,12.44,73400.5,-3.73,-10.15,-8.45,0,*6B
1509073655.53,38921,12.44,73402.0,-3.73,-9.97,-8.25,0,*5E
1509073656.75,38922,12.44,73404.3,-3.73,-10.09,-8.25,0,*62
1509073657.96,38923,12.44,73406.8,-3.75,-10.15,-8.37,0,*6B
1509073659.15,38924,12.44,73412.8,-3.75,-10.09,-8.21,0,*66
1509073660.39,38925,12.44,73414.5,-3.75,-9.53,-7.69,0,*53
1509073661.62,38926,12.44,73408.8,-3.75,-9.27,-7.43,0,*5B
1509073662.84,38927,12.44,73396.8,-3.75,-9.19,-7.31,0,*52
1509073664.07,38928,12.44,73392.3,-3.75,-9.05,-7.27,0,*57
1509073665.27,38929,12.44,73390.3,-3.75,-8.75,-6.89,0,*55
1509073666.52,38930,12.44,73388.5,-3.73,-8.51,-6.77,0,*5C
1509073667.75,38931,12.44,73388.5,-3.73,-8.59,-6.85,0,*58
1509073668.98,38932,12.44,73390.5,-3.73,-8.63,-6.85,0,*52
1509073670.21,38933,12.44,73380.3,-3.71,-8.55,-6.81,0,*50
1509073671.44,38934,12.44,73372.3,-3.69,-8.71,-6.93,0,*5B
1509073672.67,38935,12.44,73376.3,-3.71,-9.01,-7.23,0,*5F
1509073673.93,38936,12.44,73374.8,-3.71,-9.15,-7.23,0,*59
1509073675.19,38937,12.44,73374.5,-3.71,-9.11,-7.23,0,*5C
1509073676.44,38938,12.44,73374.3,-3.71,-9.11,-7.15,0,*56
1509073677.68,38939,12.44,73374.8,-3.71,-8.97,-6.97,0,*53
1509073678.94,38940,12.44,73376.8,-3.71,-8.89,-6.93,0,*56
1509073680.19,38941,12.44,73374.3,-3.71,-8.89,-6.97,0,*53
1509073681.44,38942,12.44,73378.5,-3.71,-8.71,-6.97,0,*57
1509073682.68,38943,12.44,73372.3,-3.71,-8.75,-6.93,0,*56
1509073683.92,38944,12.44,73372.3,-3.69,-8.71,-6.97,0,*58
1509073685.15,38945,12.44,73374.8,-3.69,-8.71,-6.93,0,*5D
1509073686.4,38946,12.44,73372.3,-3.71,-8.71,-6.97,0,*53
1509073687.6,38947,12.44,73368.8,-3.69,-8.55,-6.85,0,*5E
1509073688.83,38948,12.44,73372.3,-3.73,-8.37,-6.77,0,*53
1509073690.11,38949,12.44,73364.5,-3.73,-8.11,-6.63,0,*53
1509073691.36,38950,12.44,73364.3,-3.73,-8.21,-6.63,0,*58
1509073692.59,38951,12.44,73368.0,-3.73,-8.21,-6.73,0,*58
1509073693.84,38952,12.44,73376.0,-3.73,-8.11,-6.77,0,*5C
1509073695.12,38953,12.44,73382.3,-3.73,-8.11,-6.63,0,*58
1509073696.37,38954,12.44,73390.0,-3.73,-7.95,-6.51,0,*5D
1509073697.62,38955,12.44,73386.5,-3.73,-7.69,-6.39,0,*51
1509073698.87,38956,12.44,73380.3,-3.73,-7.65,-6.35,0,*52
1509073700.14,38957,12.44,73388.0,-3.73,-7.39,-6.27,0,*59
1509073701.41,38958,12.44,73386.8,-3.73,-7.39,-6.23,0,*52
1509073702.69,38959,12.44,73390.8,-3.73,-7.27,-6.27,0,*58
1509073703.95,38960,12.44,73386.3,-3.73,-7.27,-6.23,0,*56
1509073705.2,38961,12.44,73388.3,-3.73,-7.15,-6.23,0,*56
1509073706.45,38962,12.44,73388.8,-3.73,-7.15,-6.23,0,*55
1509073707.73,38963,12.44,73388.5,-3.73,-7.01,-6.19,0,*58
1509073709.01,38964,12.44,73396.3,-3.73,-6.97,-6.23,0,*58
1509073710.29,38965,12.44,73396.0,-3.73,-6.97,-6.19,0,*50